CZ-6 R/B, 44784

Orbit data source: Space-Track

CZ-6 R/B, 44784 is space debris in LEO originally from a launch on Wed, 13 Nov 2019 UTC launched from the Taiyaun Space Center, China (TSC). Debris objects in space refer to the collection of defunct objects orbiting the Earth. Examples of debris include non-operational satellites, rocket bodies, and fragments generated from explosions, collisions, or faulty payload assembly.

Loading next visibility...
Identifier
44784, 2019-076F
Orbit
LEO
Last TLE update
7 hours ago
Origin
Manufacturer
SAST
Mission
Spacecraft
Bus & Motor
CZ-6 STAGE 3, YF-85 X 4
Mass
~1,000 kg wet, ~1,000 kg dry
Launch date (UTC)
2019-11-13 (6 years ago)
Launch vehicle
Unknown
Launch site
Taiyaun Space Center, China (TSC)
Object type
Payload
Rocket body
Debris
Shape & HBR
Cyl, 4 m
Radar Cross Section
9.057 m², Large (>1 m²)

Expand to show TLE details & history

TLE from 7 hours ago
0 CZ-6 R/B
1 44784U 19076F   25187.63877697 -.00000048  00000-0  40168-4 0  9992
2 44784  45.0095  37.3711 0088720 296.4724  62.7038 14.17979357292645
Epoch: 2025-07-06T15:19Z
TLE epoch observation values (Epoch: 2025-07-06T15:19:50.33Z)
Latitude
0.00005°
Longitude
-117.44815°
Altitude
803.313 km
Speed
7.468 km/s
True Right ascension
02h 29m 29s
True Declination
0° 00' 00"
Sunlit
Object was in daylight at epoch
Visualization orbit readout
Latitude
20.36415°
Longitude
39.46059°
Altitude
885.517 km
Speed
7.385 km/s
Apparent Right ascension
15h 54m 33s
Apparent Declination
-22° 41' 30"
Sunlit
Object is in daylight
Visualization observer readout
Local Sidereal Time
10:48:41
Azimuth
115.842° SE
Elevation
-4.7°
Doppler factor
1
Orbital elements
Apogee altitude
897.709 km
Perigee altitude
769.741 km
Semi-major axis
7,211.862 km
Eccentricity
0.00887
Inclination
45.0095°
RAAN
37.3711°
Arg. of periapsis
296.4724°
True anomaly
Unknown
Mean anomaly
62.7038°
Eccentric anomaly
Unknown
Mean motion
3.54382 °/min
Orbital period
101.59 mins
BSTAR
0.000040168
Loading maneuver chart data...
Loading SW <> Apogee altitude chart data...
Loading historical data...
Loading historical data...
Loading historical data...
Loading historical data...
Loading historical data...
Loading historical data...
Loading historical data...
Other satellites on launch #76 in the year 2019 (2019-11-13 UTC)

CZ-6 R/B Visibility forecast

Observer location: undefined°, undefined°

Span
Click to sort rows by Start time (UTC) header in descending order
Start Az.
Max El. time (UTC)
Max El. Az.
Max El.
End time (UTC)
End Az.
9 mins2025-07-07 00:20:29.852Z274.013° WNW2025-07-07 00:24:29.852Z225.776° WSW26.013°2025-07-07 00:29:29.852Z165.071° S
9 mins2025-07-07 16:53:29.852Z215.944° SW2025-07-07 16:57:29.852Z140.695° SSE38.714°2025-07-07 17:02:29.852Z72.925° E
10 mins2025-07-07 18:39:29.852Z265.672° W2025-07-07 18:44:29.852Z3.529° NNE41.804°2025-07-07 18:49:29.852Z65.911° ENE
10 mins2025-07-07 20:27:29.852Z294.13° NW2025-07-07 20:31:29.852Z1.43° NNE38.987°2025-07-07 20:37:29.852Z82.708° E
10 mins2025-07-07 22:14:29.852Z293.086° NW2025-07-07 22:18:29.852Z281.684° WNW44.649°2025-07-07 22:24:29.852Z116.419° SE
|